Location: Puketoi
(40.5833°S, 176.0167°E)
Time: 14:51:38
(UTC+00:00)

Resurs 1-4 Rocket - Pass Details

Date: 08 February 2023
Orbit: 800 x 813 km, 98.7° (Epoch: 22 March)

Event Time Altitude Azimuth Distance (km) Brightness Sun altitude
Exits shadow 12:23:20 33° 140° (SE) 1,360 3.5 -34.4°
Drops below altitude 10° 12:27:03 10° 177° (S) 2,435 5.4 -34.4°
Sets 12:29:33 0° 185° (S) 3,374 6.4 -34.4°
